Sedalia, MO

12:01 PM CDT on October 20, 2019 (GMT -0500)
Sedalia Memorial

Weather History for KDMO - September, 2019

Change the Weather History Date:

Friday, September 20, 2019

  Actual Average Record
Temperature  
Mean Temperature 76 °F 67 °F  
Max Temperature 85 °F 78 °F 95 °F (1972)
Min Temperature 66 °F 57 °F 32 °F (1991)
Degree Days  
Heating Degree Days 0 2  
Month to date heating degree days 0 12  
Since 1 July heating degree days 2 13  
Cooling Degree Days 11 4  
Month to date cooling degree days 200 133  
Year to date cooling degree days 1063 1418  
Growing Degree Days 25 (Base 50)    
Moisture  
Dew Point 68 °F    
Average Humidity 78    
Maximum Humidity 97    
Minimum Humidity 58    
Precipitation  
Precipitation 0.04 in 0.12 in 2.92 in (1993)
Month to date precipitation 1.16 2.87  
Year to date precipitation 34.41 30.81  
Sea Level Pressure  
Sea Level Pressure 30.03 in    
Wind  
Wind Speed 10 mph (SSE)    
Max Wind Speed 23 mph    
Max Gust Speed 32 mph    
Visibility 10 miles    
Events Rain    
T = Trace of Precipitation, MM = Missing Value Source: NWS Daily Summary

Daily Weather History Graph

Daily Weather History Graph

Search for Another Location

Airport or City:

Astronomy

Sep. 20, 2019 Rise Set
Actual Time 6:58 AM CDT 7:13 PM CDT
Civil Twilight 6:31 AM CDT 7:39 PM CDT
Nautical Twilight 6:00 AM CDT 8:10 PM CDT
Astronomical Twilight 5:29 AM CDT 8:42 PM CDT
Moon 11:07 PM CDT 1:00 PM CDT
Length of Visible Light 13h 07m
Length of Day
12h 14m
Waning Gibbous, 65% of the Moon is Illuminated
Sep 20
Waning Gibbous
Sep 21
Last Quarter
Sep 28
New
Oct 5
First Quarter
Oct 13
Full

Hourly Weather History & Observations

Time (CDT) Temp. Heat Index Dew Point Humidity Pressure Visibility Wind Dir Wind Speed Gust Speed Precip Events Conditions
12:53 AM 70.0 °F - 68.0 °F 93% 30.01 in 10.0 mi SSE 6.9 mph - N/A   Clear
1:53 AM 69.1 °F - 66.9 °F 93% 30.03 in 10.0 mi SSE 6.9 mph - N/A   Clear
2:53 AM 70.0 °F - 66.9 °F 90% 30.01 in 10.0 mi Calm Calm - N/A   Clear
3:53 AM 68.0 °F - 66.0 °F 93% 30.02 in 10.0 mi SE 4.6 mph - N/A   Clear
4:53 AM 68.0 °F - 66.0 °F 93% 30.02 in 10.0 mi SE 4.6 mph - N/A   Clear
5:53 AM 66.0 °F - 64.9 °F 96% 30.01 in 10.0 mi East 3.5 mph - N/A   Clear
6:53 AM 66.0 °F - 64.9 °F 96% 30.03 in 8.0 mi SE 5.8 mph - N/A   Clear
7:53 AM 68.0 °F - 66.9 °F 96% 30.04 in 8.0 mi SE 5.8 mph - N/A   Clear
8:53 AM 72.0 °F - 68.0 °F 87% 30.06 in 10.0 mi South 6.9 mph - N/A   Clear
9:53 AM 78.1 °F - 69.1 °F 74% 30.07 in 10.0 mi South 9.2 mph - N/A   Clear
10:53 AM 80.1 °F 82.9 °F 69.1 °F 69% 30.08 in 10.0 mi South 11.5 mph - N/A   Clear
11:53 AM 80.1 °F 82.7 °F 68.0 °F 67% 30.07 in 10.0 mi South 8.1 mph - N/A   Scattered Clouds
12:53 PM 81.0 °F 83.8 °F 68.0 °F 65% 30.06 in 10.0 mi SSE 10.4 mph - N/A   Mostly Cloudy
1:53 PM 82.9 °F 85.8 °F 68.0 °F 60% 30.04 in 10.0 mi SSE 15.0 mph - N/A   Clear
2:53 PM 84.9 °F 89.4 °F 70.0 °F 61% 30.01 in 10.0 mi SE 11.5 mph 18.4 mph N/A   Clear
3:53 PM 82.9 °F 87.0 °F 70.0 °F 65% 29.99 in 10.0 mi SE 12.7 mph - N/A   Mostly Cloudy
4:53 PM 82.0 °F 84.5 °F 66.9 °F 60% 29.98 in 10.0 mi South 16.1 mph 25.3 mph N/A   Scattered Clouds
5:53 PM 73.0 °F - 72.0 °F 96% 30.00 in 5.0 mi South 9.2 mph - 0.04 in Rain Light Rain
6:53 PM 73.0 °F - 69.1 °F 87% 30.00 in 10.0 mi SSE 15.0 mph - 0.00 in   Overcast
7:53 PM 71.1 °F - 66.9 °F 87% 30.01 in 10.0 mi South 12.7 mph - N/A   Scattered Clouds
8:53 PM 71.1 °F - 66.9 °F 87% 30.03 in 10.0 mi South 10.4 mph - N/A   Overcast
9:53 PM 71.1 °F - 66.9 °F 87% 30.03 in 10.0 mi SSE 11.5 mph - N/A   Overcast
10:53 PM 71.1 °F - 68.0 °F 90% 30.03 in 10.0 mi SSE 13.8 mph - N/A   Overcast
11:53 PM 71.1 °F - 68.0 °F 90% 30.03 in 10.0 mi South 12.7 mph - N/A   Overcast